Location: Bu�n Treun
(12.1333°N, 108.3167°E)
Time: 09:07:15
(UTC+00:00)

Hubble Space Telescope - Visible Passes

Search period start: 04 December 2022 00:00
Search period end: 14 December 2022 00:00
Orbit: 530 x 534 km, 28.5° (Epoch: 03 December)

Date Brightness Start Highest point End Pass type
(mag) Time Alt. Az. Time Alt. Az. Time Alt. Az.
04 Dec 0.7 21:41:14 36° W 21:42:40 61° NNW 21:46:42 10° NE visible
05 Dec 1.1 21:30:11 46° NNW 21:30:11 46° NNW 21:33:59 10° NE visible
06 Dec 2.2 21:18:57 26° NNE 21:18:57 26° NNE 21:21:13 10° NE visible
07 Dec 3.1 21:07:33 15° NNE 21:07:33 15° NNE 21:08:24 10° NE visible
